Location: Burla
(50.9568°N, 10.4983°E)
Time: 09:15:38
(UTC+00:00)

IRS-1D - Pass Details

Date: 18 January 2026
Orbit: 737 x 810 km, 98.8° (Epoch: 14 February)

Event Time Altitude Azimuth Distance (km) Brightness Sun altitude
Rises 05:15:39 0° 11° (NNE) 3,335 6.8 -17.8°
Reaches altitude 10° 05:18:03 10° 7° (N) 2,404 6.0 -17.4°
Maximum altitude 05:23:10 49° 294° (WNW) 1,039 3.8 -16.6°
Drops below altitude 10° 05:28:15 10° 220° (SW) 2,391 5.8 -15.8°
Sets 05:30:38 0° 215° (SW) 3,314 6.6 -15.5°
